Skip Page Navigation
NASA JPL Caltech
NASA Logo - Jet Propulsion Laboratory + View the NASA Portal
+ Center for Near-Earth Object Studies
JPL Home Earth Solar System Stars & Galaxies Technology
JPL Solar System Dynamics
BODIES ORBITS EPHEMERIDES TOOLS PHYSICAL DATA DISCOVERY FAQ SITE MAP
IMPORTANT: The SSD Announcement email list is now available. Major changes are coming in the near future, including possible hostname and/or URL changes. To be notified of such changes, subscribe to this email list.

Please visit this page for more details.


JPL Small-Body Database Browser
Search: [ help ]  
56915 (2000 QW206)
Classification: Main-belt Asteroid          SPK-ID: 2056915
Ephemeris | Orbit Diagram | Orbital Elements | Mission Design | Physical Parameters | Discovery Circumstances ]

[ hide orbit diagram ]

For accurate long-term ephemerides, please instead use our Horizons system.This orbit viewer was implemented using two-body methods, and hence should not be used for determining accurate long-term trajectories (over several years or decades) or planetary encounter circumstances.


[ revert to old Java-based viewer ]

Orbital Elements at Epoch 2459000.5 (2020-May-31.0) TDB
Reference: JPL 26 (heliocentric ecliptic J2000)
 Element Value Uncertainty (1-sigma)   Units 
e .1653989576555149 4.0033e-08  
a 2.690631670779079 1.9578e-08 au
q 2.245603996997303 1.0958e-07 au
i 12.59419120512983 4.5221e-06 deg
node 1.533557765215577 2.125e-05 deg
peri 262.4119732349306 3.225e-05 deg
M 243.2851698975889 3.2016e-05 deg
tp 2459523.140839872435
(2021-Nov-04.64083987)
0.0001475 TDB
period 1612.054802195952
4.41
1.7595e-05
4.817e-08
d
yr
n .2233174700448183 2.4374e-09 deg/d
Q 3.135659344560855 2.2816e-08 au
  Orbit Determination Parameters
   # obs. used (total)      920  
   data-arc span      7602 days (20.81 yr)  
   first obs. used      1999-04-11  
   last obs. used      2020-02-02  
   planetary ephem.      DE431  
   SB-pert. ephem.      SB431-N16  
   condition code      0  
   norm. resid. RMS      .51097  
   source      ORB  
   producer      Otto Matic  
   solution date      2020-Feb-23 11:58:30  

Additional Information
 Earth MOID = 1.27295 au 
 Jupiter MOID = 2.0891 au 
 T_jup = 3.318 
[ show covariance matrix ]

Ephemeris | Orbit Diagram | Orbital Elements | Mission Design | Physical Parameters | Discovery Circumstances ]

Physical Parameter Table
Parameter Symbol Value Units Sigma Reference Notes
absolute magnitude H 14.6   n/a MPO502533  

56915 (2000 QW206)          Discovered 2000-Aug-31 by LINEAR at Socorro
Reference: 20030318/Numbers.arcLast Updated: 2004-04-19

Alternate Designations
 2000 QW206 = 1999 GJ53 
Ephemeris | Orbit Diagram | Orbital Elements | Mission Design | Physical Parameters | Discovery Circumstances ]
ABOUT SSD CREDITS/AWARDS PRIVACY/COPYRIGHT GLOSSARY LINKS
FirstGov 2020-Apr-04 09:45 UT
(server date/time)  
NASA Home Page
Site Manager:   Ryan S. Park
Webmaster  Alan B. Chamberlin